Theta_e
319 322 325 320 324 322 312 315 312 312 315 310 311 313 310 311 308 306 307 309 309 309 312 311 310 310 310 309 303 297 296 295 294 294 293 293 293 294 295 294 295 295 292 290 288 288 288 288 289 288 289 289 289 290 290 290 289 289 289 289 289 289 289 288 288 288 288 288 288 288 288 288 287 287 288 288 288 288 288 289 289 290 290 289 289 289
321 318 324 324 323 318 310 311 310 309 310 308 309 311 310 310 308 306 307 308 306 308 313 312 310 309 308 307 303 298 296 295 295 294 294 293 293 294 294 294 294 293 292 290 289 288 288 288 288 288 288 288 289 289 289 289 289 289 289 289 289 289 288 288 287 287 287 287 287 287 287 286 286 286 287 286 286 287 287 288 288 288 288 288 288 288
327 322 323 322 316 311 308 309 309 308 308 308 309 310 311 310 310 310 309 308 308 307 312 313 309 308 308 306 303 299 297 296 295 295 294 293 293 294 293 293 292 292 292 292 290 288 288 288 288 288 288 288 288 288 289 289 289 289 289 289 288 288 288 288 287 287 287 287 286 286 286 286 286 285 285 285 285 286 286 286 286 286 286 287 287 288
325 329 322 314 310 308 309 309 308 308 308 310 309 309 312 311 311 312 311 311 310 307 310 310 307 306 306 306 304 299 297 297 296 296 295 294 294 294 293 292 291 292 293 292 291 289 288 287 288 287 287 288 288 288 289 288 289 289 289 289 288 288 288 287 287 286 286 286 286 286 285 285 285 285 285 285 285 285 285 284 285 285 285 286 286 286
321 322 314 311 310 308 310 310 310 309 311 319 316 310 311 311 310 311 310 310 309 310 311 307 306 308 306 306 305 299 296 297 296 295 295 294 294 294 293 292 292 293 293 293 292 289 287 287 287 287 287 287 288 288 288 288 288 288 288 288 288 288 287 287 287 286 286 286 286 285 285 285 284 284 284 284 284 284 283 283 283 283 283 284 284 284
316 312 309 312 312 311 311 313 316 314 313 323 321 313 312 311 311 311 311 310 309 313 312 305 308 314 309 307 306 300 296 296 295 294 294 294 293 294 293 292 293 294 294 293 290 288 286 286 286 287 287 287 287 287 288 288 288 288 288 288 288 288 287 287 287 286 286 285 285 284 284 284 283 284 284 283 283 283 282 282 282 282 282 282 282 282
313 309 312 316 316 316 314 315 320 316 313 317 316 315 314 310 310 310 309 309 311 313 308 304 308 310 308 309 309 303 298 297 295 294 294 293 293 293 292 291 293 293 292 291 290 287 286 286 286 286 287 287 287 287 287 287 288 288 288 288 288 287 287 286 286 286 286 285 284 284 283 283 283 283 283 283 282 282 282 281 281 281 281 281 281 282
312 309 314 316 316 317 314 316 318 314 316 318 313 313 313 309 309 309 306 308 310 309 305 304 306 305 305 307 306 302 300 298 295 294 293 293 293 292 291 291 292 292 291 291 290 288 286 285 285 286 286 286 286 287 287 287 287 287 287 287 287 287 286 286 286 286 285 285 284 284 283 283 283 282 282 282 282 281 281 281 281 280 281 281 281 283
311 310 316 315 315 315 316 321 319 313 316 318 312 308 306 305 306 306 305 307 307 304 305 306 305 306 308 307 302 298 300 300 296 295 294 293 292 291 291 291 291 291 291 291 290 288 286 285 285 286 286 286 286 286 287 287 287 287 287 287 287 286 286 286 286 285 285 284 284 283 283 282 282 282 281 281 281 281 280 280 280 280 280 280 281 282
312 310 317 319 316 317 321 322 318 314 312 311 309 307 307 308 306 305 304 306 307 305 307 307 305 307 312 312 304 299 300 301 299 296 295 293 292 291 290 291 291 290 290 290 289 286 285 285 285 285 286 286 286 286 286 286 286 287 287 286 286 286 285 285 285 285 284 284 283 283 282 282 282 281 281 281 280 280 280 279 279 279 279 280 280 280
312 306 311 315 314 317 319 313 309 311 309 308 311 311 314 313 309 309 308 306 308 310 311 309 307 307 311 312 306 304 305 304 301 299 296 294 293 290 290 290 289 289 289 290 288 285 284 285 285 285 285 285 285 286 286 286 286 286 286 285 285 286 285 285 285 284 284 283 283 282 282 281 281 281 280 280 280 279 279 279 279 279 279 279 279 279
313 307 310 312 311 312 313 308 308 311 311 312 315 314 314 315 315 315 314 310 311 317 315 307 304 305 308 310 306 304 304 302 302 301 297 295 293 290 289 289 289 289 289 289 290 288 285 284 285 285 285 284 285 285 285 285 285 285 285 284 285 285 285 285 285 284 284 283 282 282 281 281 280 280 280 279 279 279 279 279 278 278 278 278 278 279
318 314 312 309 308 309 312 310 308 312 314 314 314 314 315 318 321 319 317 315 315 319 313 302 302 304 305 308 306 304 302 300 301 300 297 296 292 290 289 288 289 289 289 289 290 290 287 284 284 284 284 284 284 284 284 284 284 284 285 284 284 285 285 285 284 284 283 282 282 281 281 280 280 279 279 279 279 278 279 278 278 278 278 278 278 278
323 321 312 308 310 310 312 312 312 316 313 309 311 316 318 319 321 320 319 320 320 320 309 298 300 305 305 306 303 302 300 297 299 298 296 295 292 290 288 288 289 289 289 290 289 290 289 284 283 283 283 283 283 284 284 284 284 284 284 284 284 284 285 284 284 283 282 282 281 281 280 280 279 279 278 278 278 278 278 278 278 278 278 278 277 277
322 325 318 313 313 310 308 312 320 322 312 308 311 314 317 318 320 320 320 321 319 318 310 300 302 309 310 305 298 294 293 293 295 295 293 292 290 289 288 288 289 288 288 289 289 289 287 283 283 283 283 283 283 283 283 283 283 283 283 283 283 284 284 284 283 282 282 281 281 280 280 279 279 278 278 278 278 278 278 277 277 277 277 277 277 277
316 324 320 308 306 307 308 310 314 319 313 308 308 309 312 315 317 317 315 315 313 310 307 303 306 309 307 300 293 291 291 290 291 290 290 290 289 288 288 287 288 288 288 288 288 288 285 283 283 283 283 283 283 282 283 283 283 283 283 283 283 283 283 283 282 282 281 281 280 279 279 279 278 278 278 277 277 277 277 277 277 277 277 277 277 277
314 321 314 303 303 305 305 306 306 312 314 308 305 308 310 310 310 310 310 309 308 308 309 307 308 308 307 301 294 291 291 289 289 289 289 289 288 288 287 287 288 288 288 288 288 288 285 283 283 283 283 283 282 282 282 283 283 282 282 282 282 282 282 282 282 281 280 280 279 279 278 278 278 277 277 277 277 277 276 276 276 276 277 276 276 276
316 318 311 307 309 303 297 301 302 304 308 308 309 310 308 306 305 306 309 309 308 309 311 309 308 309 311 307 296 291 292 290 289 289 289 288 288 288 287 287 288 288 288 288 287 286 284 282 283 283 283 282 282 282 282 282 282 282 282 282 281 282 281 281 281 280 279 279 278 278 278 277 277 277 277 277 276 276 276 276 276 276 276 276 276 276
314 316 312 305 307 302 297 302 306 302 301 306 308 306 308 310 309 307 308 310 311 312 314 312 309 309 309 308 302 297 294 291 289 288 289 289 287 287 287 287 287 288 288 287 287 287 284 282 282 283 282 283 282 282 282 282 281 281 281 281 281 281 281 280 280 279 278 278 277 277 277 277 277 276 276 276 276 276 276 276 276 276 276 276 276 276
312 314 315 303 300 303 301 304 312 307 300 299 301 301 304 307 309 309 307 309 313 314 315 315 314 313 309 306 308 303 296 292 290 288 289 289 287 287 287 287 287 287 287 287 287 287 285 282 282 283 282 282 282 281 281 281 281 281 280 280 280 280 280 279 278 278 277 277 276 276 276 276 276 276 276 276 276 276 276 276 276 276 276 275 275 275
311 313 317 305 299 303 305 305 310 310 304 300 300 301 301 302 305 307 304 305 310 312 314 314 315 316 309 303 306 304 297 293 291 290 290 289 287 287 287 286 287 287 287 287 286 287 285 282 282 283 282 282 281 281 281 280 280 280 279 279 279 279 278 278 277 277 276 276 276 275 275 276 276 276 276 276 276 276 275 275 276 275 275 275 275 274
312 314 315 308 303 306 309 308 306 307 307 304 303 304 303 303 306 307 306 306 306 308 312 313 313 315 307 301 303 302 298 294 291 291 291 288 287 287 286 287 287 286 287 286 286 287 285 282 282 282 281 281 280 280 280 279 279 279 278 278 278 277 277 277 276 276 276 275 275 275 275 275 275 275 275 275 275 275 275 275 275 275 275 274 274 274
314 315 312 310 309 305 304 303 301 302 303 302 304 306 304 303 305 309 312 309 305 305 306 307 309 310 302 298 300 299 297 294 291 291 290 288 287 287 286 287 286 286 287 286 286 286 283 281 282 281 281 280 280 279 279 278 278 278 277 277 277 276 276 276 276 275 275 275 274 274 274 274 274 274 274 275 275 275 275 275 275 274 274 274 273 273
311 314 311 313 314 306 300 300 301 300 299 300 302 303 303 303 305 307 309 309 309 307 304 305 309 308 300 297 297 295 294 293 291 290 290 288 287 286 286 286 286 286 286 286 286 284 282 281 281 280 280 279 279 279 278 277 277 277 277 276 276 275 275 275 275 274 274 274 274 274 274 274 274 274 274 274 274 274 274 274 274 274 273 273 273 272
312 315 313 314 317 313 307 305 305 302 298 298 301 301 301 302 304 305 304 305 308 307 305 306 311 310 301 296 294 293 292 292 290 289 289 288 287 286 286 285 285 286 286 285 286 285 283 282 280 280 279 279 278 278 277 277 276 276 276 275 275 275 275 274 274 274 274 273 273 273 273 273 273 273 273 273 273 274 274 274 273 273 273 273 272 272
313 316 314 314 315 316 313 311 313 311 301 298 300 300 300 301 302 303 303 304 306 306 306 307 309 309 302 296 294 292 291 291 289 288 288 288 287 286 285 285 285 286 286 285 285 285 284 282 280 279 279 278 278 277 276 276 275 275 275 274 274 274 274 273 273 273 273 272 272 272 272 272 272 272 272 272 273 273 273 273 273 272 272 272 271 271
317 315 312 313 314 314 313 311 314 313 305 302 302 299 299 300 301 301 303 305 306 306 307 307 307 308 305 300 297 294 291 291 290 288 288 287 287 286 285 285 285 286 286 286 285 284 283 281 280 278 278 277 277 276 275 275 274 274 274 274 274 273 273 273 272 272 272 271 271 271 271 271 271 271 271 272 272 272 272 272 272 271 271 271 271 270
319 315 310 311 311 311 312 311 312 312 307 307 307 303 299 299 300 302 303 304 305 306 307 308 307 308 307 305 301 296 292 291 289 288 288 287 286 286 285 286 286 286 285 285 284 283 282 280 279 278 277 277 276 275 275 274 274 273 273 273 273 273 272 272 272 271 271 270 270 270 270 270 270 270 270 271 271 271 271 271 270 270 269 269 269 269
314 314 312 311 310 310 310 310 311 311 308 308 309 307 303 298 299 302 302 303 304 306 308 309 308 308 308 306 303 298 295 292 290 288 288 287 286 286 285 286 286 285 285 285 284 283 281 279 278 277 277 276 275 274 274 273 273 273 273 272 272 272 272 271 271 270 270 270 270 270 270 270 269 270 270 270 270 270 270 270 269 268 268 268 268 268
310 312 311 310 310 310 308 308 309 308 307 307 307 307 306 302 300 301 301 302 303 304 305 306 306 307 306 305 303 300 298 294 290 288 288 287 286 286 285 285 286 285 285 285 284 282 280 278 277 277 276 275 274 273 273 273 272 272 272 271 271 271 271 270 270 269 269 269 269 269 269 269 269 269 269 269 269 269 268 268 267 267 267 267 267 267
307 310 312 310 310 310 309 309 309 307 307 308 306 306 307 306 304 303 303 303 303 303 303 303 303 304 303 302 302 300 298 294 290 288 288 287 286 286 285 285 285 285 285 284 283 280 279 278 277 276 275 274 273 273 272 272 272 271 271 271 270 270 270 269 269 269 269 269 269 269 269 269 269 269 268 268 268 268 267 267 266 266 266 266 267 267
306 309 312 310 310 311 310 308 306 304 304 304 305 305 305 305 306 306 305 305 304 304 304 303 302 302 301 300 300 299 296 294 291 289 287 287 286 286 286 285 285 285 285 284 282 279 278 277 276 275 274 273 273 272 272 271 271 270 270 270 270 269 269 268 268 268 268 268 268 269 268 268 268 268 267 267 266 266 266 265 265 265 266 266 267 267
306 308 310 310 311 311 306 303 303 303 305 307 307 307 305 304 305 305 305 304 304 303 303 303 303 302 301 301 300 297 295 293 291 289 287 287 286 285 286 285 285 286 285 283 281 279 278 277 276 275 274 273 272 272 271 270 270 269 269 269 268 268 268 268 268 268 268 268 268 268 268 268 267 266 266 265 265 265 264 264 265 265 265 266 266 267
305 307 308 309 312 310 302 300 301 305 310 311 308 308 308 305 304 304 304 304 303 302 302 303 303 302 302 301 299 297 295 293 291 289 288 288 286 286 286 285 285 286 285 282 280 278 277 276 274 274 273 272 272 271 270 269 269 269 268 268 268 267 267 267 267 268 268 268 268 268 267 266 266 265 264 264 264 263 263 264 264 264 265 266 266 267
304 305 307 308 310 306 299 300 305 309 311 307 303 303 305 305 303 303 303 302 302 302 301 301 301 300 300 300 298 298 296 293 290 289 288 288 287 286 286 285 285 285 283 281 279 278 276 274 273 273 272 271 271 270 269 268 268 268 267 267 267 267 267 267 267 267 267 268 267 267 266 265 264 264 263 263 263 263 263 263 264 264 265 266 266 267
305 304 306 306 306 303 301 303 309 311 308 305 303 299 299 300 300 300 302 302 300 300 300 300 300 300 299 299 298 296 294 291 289 288 287 287 286 286 285 285 284 283 282 280 278 277 275 273 272 272 271 270 269 268 268 268 267 267 266 266 266 266 267 267 267 267 267 267 266 265 264 264 263 262 262 262 262 262 263 263 264 264 265 266 267 268
306 305 306 306 306 307 307 306 307 308 307 307 307 301 297 299 299 299 302 303 301 300 299 299 299 299 299 299 296 292 289 289 290 289 287 286 286 285 285 284 282 281 280 278 276 275 273 272 272 271 270 269 268 268 267 267 266 266 265 266 266 266 266 266 266 267 266 265 265 264 263 262 262 261 261 261 262 262 263 263 264 265 265 266 267 268
305 306 306 308 308 308 308 307 306 308 309 308 306 301 298 298 299 299 301 301 300 301 300 299 299 299 298 296 292 288 289 292 292 290 288 286 284 284 283 282 280 279 277 275 274 273 272 271 271 270 269 268 268 267 267 266 265 265 265 265 265 265 266 266 266 265 265 264 263 263 262 261 261 261 261 261 262 262 263 263 264 265 266 267 268 269
304 305 305 308 309 307 307 308 307 309 310 306 302 298 296 297 298 300 303 303 301 301 300 299 298 298 297 293 289 289 292 294 294 291 288 285 283 282 281 280 278 276 275 274 273 272 271 270 270 269 268 267 267 267 266 265 265 264 265 265 265 265 265 265 265 264 263 262 262 261 260 260 260 260 261 261 262 262 263 264 265 266 267 267 268 269
303 304 304 306 308 306 306 307 306 307 307 303 299 296 294 296 299 303 307 307 301 299 298 297 297 297 295 291 289 290 293 295 295 292 287 283 282 280 279 278 276 275 273 273 272 271 270 270 269 268 267 267 267 266 265 265 264 264 264 264 264 264 264 264 263 262 261 261 260 260 260 260 260 260 261 261 262 263 264 265 265 265 266 267 268 268
301 302 303 304 306 306 307 307 306 307 305 300 295 294 294 297 301 305 308 307 300 296 295 295 296 294 292 290 289 291 293 294 293 289 284 282 281 279 278 277 275 274 273 272 271 271 270 269 268 268 267 267 266 265 265 264 264 263 264 263 263 263 263 262 261 260 260 259 259 259 259 260 260 261 261 262 263 264 264 264 264 265 265 266 267 267
301 301 302 303 305 304 305 306 305 306 304 298 293 293 295 300 304 305 303 301 300 297 294 293 294 292 291 290 290 291 292 290 287 285 283 282 281 278 276 275 273 273 272 271 271 270 269 268 267 267 267 266 265 264 264 264 263 263 262 262 262 262 261 260 260 259 258 258 258 259 259 260 260 261 262 263 263 264 264 264 264 264 265 266 266 267
303 302 301 302 303 303 304 304 304 306 304 297 293 294 296 301 305 303 298 296 297 297 294 292 292 291 290 290 290 290 289 286 284 283 282 281 279 277 275 274 273 272 271 270 269 268 268 267 267 266 266 265 265 264 264 263 262 262 261 261 261 261 260 259 259 258 258 258 259 259 259 260 261 261 262 263 263 263 263 263 264 264 265 265 266 266
304 303 303 303 302 302 303 303 303 305 301 296 296 297 297 299 302 302 299 295 294 293 292 292 292 290 290 290 289 288 287 284 283 283 281 280 278 276 275 274 273 271 270 269 268 267 267 267 266 265 265 265 264 264 263 262 262 261 260 260 260 259 259 258 258 257 258 258 259 259 260 260 261 262 262 263 263 263 263 263 264 264 264 264 265 266
307 305 306 306 303 303 305 304 304 304 298 295 297 299 298 297 299 300 299 296 293 292 292 292 291 290 289 289 288 286 286 284 283 282 281 280 278 276 274 273 272 270 269 268 267 267 266 266 265 264 264 264 263 263 263 262 261 260 260 259 259 258 258 258 257 257 257 258 259 259 260 260 261 262 262 263 263 263 263 263 263 263 264 264 265 265
307 305 307 308 304 303 304 304 303 302 297 294 296 298 297 297 297 297 298 295 292 292 292 292 291 289 288 289 288 287 286 284 282 282 281 279 277 275 273 272 270 269 267 267 266 266 266 265 264 263 263 263 263 262 262 261 260 259 259 258 258 257 257 257 257 257 257 258 258 259 260 260 261 262 262 262 262 262 263 263 263 263 263 264 264 265
306 304 304 306 306 305 307 307 305 302 298 295 295 296 296 295 294 295 296 295 293 292 292 292 291 289 288 289 289 288 286 285 283 282 280 278 276 274 272 271 269 267 266 266 266 265 265 264 263 262 263 263 262 262 261 260 259 259 258 257 257 257 257 257 256 257 257 258 258 259 259 260 261 262 262 262 262 262 263 263 262 263 263 264 264 264
307 303 303 305 305 306 308 308 305 302 299 296 294 295 295 294 293 293 294 294 293 292 292 291 291 290 288 289 289 288 286 285 284 282 280 277 275 273 271 270 268 267 266 265 265 264 264 263 262 262 262 262 261 261 260 259 259 258 257 257 257 256 256 256 256 256 257 258 258 259 259 260 260 261 261 261 262 262 262 262 262 263 263 263 264 265
306 303 304 305 304 305 307 306 303 301 300 297 295 295 295 294 292 292 293 293 293 292 291 291 290 289 288 288 288 288 287 285 284 282 279 277 275 272 271 269 267 266 265 265 264 264 263 262 262 261 261 261 261 260 259 259 258 257 257 257 256 256 256 256 256 256 257 257 258 258 259 259 260 260 261 261 262 262 262 262 262 263 264 264 264 266
305 305 305 305 305 306 307 305 303 304 304 301 297 295 294 294 292 292 292 293 293 292 291 290 289 288 288 288 288 289 288 285 282 281 279 276 274 271 269 267 265 265 264 264 263 263 262 262 261 261 260 260 260 259 258 258 257 257 257 257 256 256 255 255 255 256 256 257 257 258 259 259 259 260 260 261 261 262 262 262 262 263 264 264 265 266
307 308 306 305 307 308 307 306 304 304 306 305 300 296 294 293 293 292 292 292 292 291 290 290 289 288 287 287 287 288 288 284 281 279 278 274 271 270 267 266 265 264 264 263 262 262 261 261 260 260 260 259 259 258 258 257 257 257 257 257 256 256 255 255 255 255 256 256 257 258 259 259 259 259 260 260 261 261 261 261 261 262 263 264 264 265
Wind_Speed
4 4 3 4 5 6 6 6 6 5 6 5 3 4 5 5 7 8 5 6 2 3 8 9 9 10 9 8 10 9 8 8 8 9 9 8 8 7 7 7 7 6 6 9 8 2 4 6 8 10 11 13 15 16 16 17 19 23 25 27 28 29 31 31 31 31 31 29 29 29 29 30 31 32 33 33 33 35 36 36 36 37 38 40 42 42
5 2 5 8 8 8 6 5 4 3 4 3 3 3 5 5 8 9 5 4 0 2 7 5 5 10 10 9 8 9 10 12 14 14 13 12 10 8 8 8 7 6 4 7 8 1 5 6 9 12 13 14 14 13 15 17 19 22 24 25 26 27 28 29 29 29 28 27 27 28 29 30 31 30 31 32 33 34 34 34 35 37 39 41 41 41
5 4 9 8 6 5 2 2 4 2 2 2 2 1 5 4 4 8 5 3 2 1 5 6 5 8 10 11 9 12 14 14 15 15 13 14 12 9 8 8 8 6 5 6 6 1 4 7 9 13 12 11 10 11 14 17 19 20 22 22 23 24 26 27 28 27 27 28 29 29 29 29 30 30 30 31 32 32 34 36 37 38 39 40 41 41
3 6 8 3 6 6 1 2 4 1 1 3 3 2 5 4 2 5 5 5 4 3 6 8 8 7 9 12 9 10 11 8 9 10 9 10 11 10 10 8 8 8 7 6 5 2 3 6 8 10 9 8 9 10 14 16 17 18 19 20 21 23 25 26 27 27 28 30 32 31 30 30 30 31 33 34 33 33 35 37 38 38 38 40 42 43
6 6 3 5 6 5 2 1 5 3 3 4 5 5 6 7 6 7 4 5 6 4 4 7 8 6 7 13 10 2 3 5 6 8 8 9 9 8 8 8 8 8 7 6 5 2 2 4 6 7 7 7 9 11 14 15 16 16 17 19 21 22 24 25 27 28 29 31 33 34 34 33 32 31 32 33 36 38 39 39 39 40 41 41 42 43
8 5 4 6 3 4 5 3 5 7 3 5 5 9 10 9 8 7 5 5 5 5 4 5 5 6 2 7 9 1 3 8 6 9 12 10 8 7 8 8 8 7 5 5 4 3 1 2 4 6 6 7 9 11 13 14 14 15 16 18 20 22 23 25 26 28 30 30 31 31 31 30 30 29 28 28 33 38 42 44 45 46 46 43 42 42
3 3 4 6 4 4 4 4 5 7 4 3 4 6 7 6 6 6 4 3 2 4 3 3 2 8 3 5 9 5 8 10 7 10 13 10 9 9 8 7 7 6 5 4 3 4 2 1 4 6 6 7 10 12 12 14 15 16 17 19 21 22 22 24 26 28 29 29 28 27 25 25 25 27 31 33 35 37 40 43 46 48 48 45 43 42
3 2 4 4 4 4 4 5 6 7 6 3 4 4 4 4 4 4 1 2 4 2 6 2 4 7 7 7 6 6 9 10 9 12 11 10 11 10 8 8 7 7 6 5 5 5 2 1 3 5 6 7 10 12 12 15 17 17 18 20 22 23 23 24 26 27 27 27 27 26 24 24 24 25 31 37 38 39 39 41 45 46 47 45 41 37
3 4 4 5 3 3 6 6 7 10 4 5 5 4 3 3 4 2 2 5 3 3 8 6 7 4 9 5 2 2 7 10 12 16 14 13 13 10 9 8 7 6 6 6 5 5 3 1 2 4 6 9 10 11 13 16 17 17 19 21 23 23 23 24 25 26 26 26 26 25 24 25 26 27 30 34 36 38 39 41 44 44 44 44 39 36
2 5 7 7 5 5 6 5 7 9 4 3 4 2 2 1 2 1 1 3 2 1 10 8 7 4 8 3 2 1 5 11 14 14 13 14 12 10 9 8 7 6 5 5 5 5 4 2 3 5 8 10 11 11 15 17 17 18 19 20 22 22 22 23 24 25 25 26 25 24 24 26 29 30 31 32 34 36 38 40 42 42 42 42 41 40
3 1 3 4 4 5 4 2 2 4 3 3 5 4 4 3 2 2 1 2 3 4 11 8 11 8 7 3 5 5 6 9 11 9 9 13 13 11 10 8 7 6 5 5 4 4 3 1 4 7 9 11 11 13 16 17 17 18 19 20 21 23 22 23 24 25 26 26 24 24 24 26 28 30 30 32 33 35 37 39 42 42 42 41 40 41
5 1 2 2 3 4 6 4 3 3 3 5 5 4 4 5 4 4 4 3 1 6 7 4 8 9 8 6 5 8 8 6 8 8 13 17 16 12 9 7 7 6 6 5 4 4 2 3 6 9 10 11 12 15 17 17 17 19 20 20 22 24 24 24 25 26 26 25 24 23 24 25 27 27 28 30 33 35 36 37 41 41 41 40 37 37
3 4 3 3 1 5 6 4 3 5 4 5 4 4 3 5 4 3 4 0 3 7 4 2 2 5 10 10 8 12 12 8 7 9 13 16 15 13 10 7 6 5 5 5 4 3 2 2 5 8 10 12 13 16 18 17 17 20 22 22 22 25 25 25 26 26 26 25 24 24 24 25 26 26 27 29 32 34 34 34 36 36 36 37 35 32
3 4 2 1 2 3 7 5 2 2 1 4 3 3 1 1 3 5 5 3 5 7 2 3 2 4 8 8 8 11 10 8 7 8 9 11 14 13 10 7 6 5 5 4 4 3 3 3 4 7 10 12 15 18 18 17 18 21 23 23 23 25 26 26 26 26 26 26 25 24 24 25 26 27 28 29 31 33 34 34 34 35 35 35 34 32
2 5 3 5 2 4 8 6 5 5 3 4 4 4 3 3 3 5 4 5 9 7 3 1 2 4 4 2 4 6 6 5 3 3 4 7 10 9 7 6 6 6 5 4 4 4 4 4 5 8 11 13 16 18 18 18 20 22 24 23 23 25 27 27 27 27 27 27 26 25 25 26 27 28 29 30 31 31 35 36 36 36 35 34 36 36
4 6 6 3 2 4 6 4 4 6 3 2 3 4 2 5 5 4 4 5 4 6 5 3 3 6 5 2 1 2 2 4 4 4 8 8 8 7 6 7 6 5 5 4 4 4 4 5 7 9 12 14 16 17 17 18 22 23 24 24 24 26 27 28 28 28 28 28 27 27 27 28 28 28 30 31 31 33 35 37 36 37 37 35 36 37
2 6 4 1 2 2 4 3 2 3 3 2 2 3 4 3 5 2 5 1 2 4 7 3 6 7 2 2 1 4 2 2 3 3 7 7 7 7 6 6 5 5 5 5 4 4 4 6 9 11 12 14 15 15 16 20 23 24 24 24 24 26 27 28 29 29 30 29 30 30 29 29 28 29 31 31 33 35 36 36 36 36 37 36 36 37
3 5 4 3 2 3 1 2 2 3 4 5 3 5 3 3 3 2 2 3 0 5 6 3 9 11 4 3 3 2 2 4 4 5 5 6 7 7 7 6 6 6 5 4 4 4 5 7 10 12 12 13 14 14 17 21 23 22 22 22 23 26 27 28 29 29 30 30 31 31 31 31 30 30 31 32 34 35 36 37 36 36 37 37 36 37
2 3 5 1 2 1 2 2 0 3 2 4 4 3 3 2 1 1 2 3 3 6 7 4 7 11 8 5 2 4 9 10 8 7 7 9 10 8 7 7 6 5 4 3 4 4 5 8 11 11 11 13 12 15 18 21 22 22 22 21 22 25 27 28 29 30 30 30 30 31 32 32 32 32 32 32 34 35 36 36 36 36 37 37 37 36
3 2 4 2 2 2 2 2 3 2 2 3 1 2 1 3 4 2 2 2 3 6 9 6 6 9 7 6 7 11 14 13 11 10 11 12 11 9 8 7 6 5 5 4 5 5 6 9 10 9 10 12 13 16 18 19 20 21 21 21 22 25 27 28 29 30 32 32 32 33 34 33 32 32 33 33 34 35 36 35 35 37 37 37 36 35
2 2 3 2 3 1 3 4 7 8 4 2 2 2 2 2 1 2 2 2 3 6 7 6 9 12 4 5 7 10 11 13 14 14 14 11 10 9 8 8 6 6 6 5 5 6 6 6 8 9 10 11 13 16 17 18 19 20 20 21 22 24 27 28 29 29 31 32 33 34 35 35 34 33 34 35 35 36 36 36 36 36 37 36 36 35
3 3 4 2 2 4 6 5 6 8 7 6 6 7 7 5 2 3 5 3 3 6 5 3 11 14 3 4 5 6 8 11 14 15 12 9 11 10 8 8 7 7 7 6 6 5 4 5 7 8 9 11 13 15 16 17 18 19 20 21 22 24 25 27 29 30 31 32 33 34 35 35 35 35 36 36 37 37 36 36 36 36 35 36 35 33
3 3 3 4 4 5 5 4 2 2 2 3 5 5 6 6 6 6 8 3 2 5 2 1 10 11 1 3 4 5 6 9 12 14 11 9 11 10 8 8 7 7 6 6 5 3 4 6 7 8 9 10 12 14 15 16 17 18 21 22 23 24 26 28 29 30 31 32 33 34 35 35 35 35 36 36 36 36 35 35 36 36 35 35 35 33
2 3 2 4 3 1 2 4 4 3 3 1 5 4 6 8 9 8 6 1 2 5 2 1 12 10 1 2 1 1 1 5 9 11 11 10 8 8 9 8 7 6 5 4 3 3 5 6 6 7 8 9 11 12 13 15 16 18 21 22 23 24 26 28 29 30 31 32 33 34 34 35 35 34 34 34 35 35 35 36 36 35 34 34 34 33
3 2 3 2 5 5 3 4 4 3 0 3 5 5 8 11 7 2 1 1 4 7 7 7 15 11 1 3 2 4 4 4 6 6 8 9 8 7 7 6 6 6 4 4 4 4 4 4 5 6 8 9 10 11 12 14 16 18 21 22 23 25 26 27 29 30 31 31 33 35 34 34 33 32 33 34 35 35 35 34 34 33 32 32 32 33
5 4 5 4 5 7 7 5 3 3 3 3 4 7 10 13 11 5 1 4 9 7 9 12 15 13 7 2 2 2 5 6 5 5 6 7 8 8 7 7 7 5 5 5 5 4 4 4 4 6 8 9 9 10 12 14 16 19 21 22 23 25 27 28 29 29 31 32 33 34 34 33 31 31 33 34 35 36 34 31 30 30 31 30 30 32
3 3 7 9 11 11 13 12 4 5 4 5 7 10 11 12 13 8 4 8 11 6 10 18 15 18 19 7 5 6 7 8 8 8 8 7 8 9 8 7 6 5 5 5 4 4 4 4 4 6 9 9 9 10 12 15 17 19 21 23 24 26 27 29 30 30 31 32 33 33 33 32 30 31 33 34 35 34 32 30 30 30 31 30 29 31
4 5 10 12 16 17 18 17 6 5 9 13 12 11 11 11 12 13 13 16 12 5 14 22 15 18 27 14 8 11 10 9 10 11 11 10 9 9 7 7 7 6 5 5 5 5 5 4 5 7 8 8 8 11 14 16 18 19 21 24 25 26 27 28 30 32 33 33 33 34 33 32 31 32 33 33 34 33 30 31 32 31 31 31 30 31
4 8 10 10 15 19 18 14 7 6 8 13 16 12 9 12 16 18 20 21 15 11 20 26 18 21 27 15 8 12 13 12 13 13 11 10 10 9 8 8 8 7 7 7 6 6 6 6 6 6 6 6 8 12 16 18 20 21 23 25 26 27 28 29 30 32 33 33 32 33 34 33 32 32 32 33 33 32 31 31 32 31 31 32 31 31
4 7 8 8 12 17 15 11 8 8 8 15 21 14 8 14 19 19 20 23 21 20 25 27 26 29 26 14 8 10 11 11 10 10 9 10 11 11 10 10 9 8 8 8 7 7 7 7 6 5 4 6 9 12 16 19 20 22 24 25 26 27 28 29 30 31 31 32 33 33 34 34 32 31 31 33 32 31 30 32 32 31 31 31 31 31
4 5 3 4 7 14 12 7 6 6 8 17 23 16 12 16 18 17 20 23 19 21 27 25 24 27 23 14 10 8 7 7 8 11 11 11 12 13 12 10 9 9 9 9 9 8 7 6 5 3 2 5 9 12 15 18 21 22 23 25 27 29 29 30 31 31 31 32 33 34 34 35 34 31 31 32 32 31 31 32 32 31 32 32 32 33
5 3 1 4 5 12 5 2 0 2 5 16 24 21 18 18 18 18 19 20 19 20 23 20 17 21 17 7 7 7 9 10 12 13 12 11 12 14 13 12 10 10 10 9 8 7 6 5 4 1 1 6 11 13 15 18 21 22 23 25 28 30 31 31 31 31 32 32 33 34 34 34 34 32 33 33 33 32 33 33 32 31 32 33 33 33
6 4 1 4 7 8 1 5 2 3 5 15 19 17 20 22 21 19 18 22 22 17 14 14 16 19 11 3 6 8 9 11 11 13 12 11 13 13 12 12 11 10 9 8 7 6 5 5 3 1 3 7 11 13 16 18 19 21 22 25 28 30 31 31 30 31 33 34 33 33 35 34 32 32 33 33 33 33 32 31 31 31 32 33 33 32
6 6 4 4 4 3 1 4 4 1 10 13 6 5 14 19 21 21 22 25 21 15 15 17 18 17 10 6 8 9 10 10 11 12 13 13 13 13 12 11 10 9 8 7 6 6 4 3 2 1 3 7 10 14 17 17 18 20 23 25 28 29 30 30 31 31 32 34 33 33 35 36 34 33 33 33 32 31 30 31 32 33 33 33 32 31
9 8 4 3 2 1 2 5 2 8 13 7 2 2 9 12 14 17 22 25 20 16 19 20 21 22 17 12 8 8 9 9 8 10 11 12 12 12 11 10 9 8 8 7 6 5 4 4 3 2 3 7 11 15 16 17 18 22 25 27 28 29 28 29 30 31 31 33 34 35 36 35 33 32 32 32 31 30 30 31 33 34 35 34 32 31
10 7 4 3 3 1 2 4 8 10 12 10 5 3 3 4 5 7 15 23 20 17 18 19 23 24 20 12 6 6 7 5 5 5 8 9 10 11 12 11 10 9 8 7 6 5 5 4 3 3 4 8 12 14 15 17 20 23 26 27 26 26 27 28 29 30 31 32 35 35 33 32 32 32 32 31 31 30 31 32 34 36 36 33 32 30
9 8 5 4 4 4 5 7 8 7 17 22 14 6 6 6 7 6 10 19 13 11 14 17 21 22 16 7 5 6 7 7 4 3 5 7 8 10 10 9 9 8 7 7 8 7 6 5 4 4 6 10 12 12 14 17 20 23 25 26 25 25 26 27 27 29 31 33 34 33 31 29 31 33 32 31 31 32 34 33 35 39 36 31 29 28
6 7 7 7 7 5 6 7 6 5 14 16 7 3 5 6 7 8 4 13 8 10 14 16 18 17 9 6 8 8 8 5 3 6 6 7 7 8 7 7 7 8 9 10 10 8 7 6 5 5 6 9 11 12 15 18 21 22 23 24 24 25 26 26 27 30 31 31 31 31 30 31 32 33 33 33 33 34 36 35 37 39 35 29 28 29
3 2 4 6 5 4 6 7 6 8 14 9 3 3 4 7 8 8 2 11 8 11 13 14 14 11 7 10 10 9 8 5 7 7 8 10 10 9 9 8 7 8 11 12 10 9 8 6 4 5 7 10 12 15 17 19 21 21 22 23 25 25 25 26 28 30 29 29 30 30 31 33 34 34 34 35 35 35 35 35 35 34 32 29 30 31
3 1 3 6 8 8 9 8 5 8 12 6 7 5 5 8 9 8 4 12 7 9 9 11 11 9 10 12 11 10 9 9 8 6 10 13 10 9 10 10 8 8 10 11 10 9 8 6 6 8 9 11 13 15 18 19 20 20 21 23 24 23 25 27 28 28 27 28 30 32 33 34 35 35 34 35 36 34 33 32 32 31 31 32 31 29
2 3 5 8 11 11 10 8 5 8 9 7 9 9 9 7 7 3 8 9 7 9 8 9 11 10 11 13 11 9 8 4 3 8 13 14 11 8 9 10 11 11 11 12 11 9 7 7 8 9 10 11 13 16 18 19 19 19 20 21 22 23 26 27 27 27 28 30 33 34 35 35 34 35 35 34 33 33 32 32 32 32 32 32 31 29
3 3 4 7 7 6 7 6 5 10 7 11 14 12 12 8 3 8 7 2 9 11 9 8 10 10 12 14 11 8 4 4 8 13 15 14 12 10 9 10 11 10 11 12 11 8 8 8 9 9 10 12 14 16 17 18 18 19 19 20 21 24 26 26 26 29 31 33 34 34 35 35 34 34 33 31 30 31 33 33 32 32 31 30 30 30
8 6 4 7 5 3 4 5 5 9 7 18 18 9 9 10 9 6 3 3 6 10 8 8 8 9 11 12 8 7 7 8 10 13 14 12 11 11 10 9 9 9 10 12 10 7 8 8 7 8 10 13 14 15 16 17 18 19 19 20 22 24 25 27 30 33 33 33 34 34 34 34 34 33 30 29 30 31 33 33 32 30 30 29 27 27
8 8 6 7 6 5 5 10 10 6 8 21 20 12 16 18 8 5 7 5 4 6 6 6 7 8 11 11 9 9 9 9 10 12 13 11 11 11 9 8 8 9 10 12 10 7 8 8 7 8 10 12 13 14 14 16 18 19 20 21 23 25 27 29 32 33 32 33 33 33 33 33 33 31 29 29 30 30 30 32 31 29 28 27 25 23
12 13 7 5 8 9 9 12 10 3 8 19 17 10 14 16 6 6 9 7 5 6 6 5 7 9 10 10 11 10 9 10 12 13 13 12 12 10 8 7 9 10 12 12 10 8 8 7 7 8 10 11 11 12 13 15 16 17 19 22 23 26 28 31 32 31 31 32 32 32 33 33 31 29 27 28 30 29 29 29 29 27 26 25 23 21
8 9 3 1 6 10 12 13 8 4 8 17 16 5 4 8 7 6 8 7 6 7 6 6 8 10 9 10 11 10 9 11 13 12 11 12 11 9 8 8 9 12 14 13 10 8 7 7 8 9 9 10 10 10 13 15 15 15 19 21 23 25 28 30 31 30 29 31 31 31 31 31 30 28 27 28 28 28 28 28 27 26 25 23 22 22
3 6 6 5 6 7 12 17 14 12 12 15 15 9 4 5 7 7 7 7 7 8 8 8 9 10 11 11 13 11 10 12 14 11 10 11 11 9 8 8 8 11 14 13 11 9 8 7 8 8 7 8 8 10 12 14 14 15 18 21 22 25 27 28 28 28 28 29 30 30 30 29 28 28 28 28 28 28 28 28 27 25 24 23 22 21
4 8 8 11 10 10 15 14 4 7 13 14 13 12 9 8 9 8 6 7 8 9 9 7 7 9 10 11 12 12 11 12 13 12 10 10 10 10 9 8 9 11 14 14 12 9 9 8 7 5 4 5 7 10 12 13 14 16 18 20 22 24 25 26 26 26 27 27 28 28 28 27 27 27 28 28 27 26 27 28 28 25 23 23 23 21
6 8 8 10 10 13 20 12 4 4 8 11 13 15 13 11 11 9 6 7 9 9 8 6 6 9 11 11 11 12 12 11 12 13 12 10 9 9 8 10 12 13 15 15 12 9 9 8 6 3 2 4 6 9 12 12 14 16 18 19 21 22 24 25 25 24 25 25 26 27 27 27 27 27 27 27 26 26 26 27 27 26 25 26 26 25
7 9 7 6 7 13 21 17 10 6 9 11 15 20 17 11 11 11 10 10 11 11 11 9 6 5 8 9 10 12 13 10 10 12 12 10 10 10 10 12 13 14 15 15 12 9 9 8 5 3 1 4 6 9 11 12 13 16 17 19 21 21 22 23 23 23 23 24 25 26 26 26 26 27 27 26 25 26 28 28 27 25 25 27 29 29
13 16 12 11 14 19 20 16 13 12 12 11 12 16 15 12 13 15 15 14 13 12 12 12 10 7 6 6 7 10 13 11 11 12 11 9 10 12 14 15 15 14 15 15 13 10 9 7 5 3 1 3 6 8 10 11 13 15 17 18 20 20 20 21 21 21 22 23 24 25 25 25 26 26 26 25 24 25 28 30 30 29 28 28 30 31
Wind_Direction
78 43 314 255 250 226 212 193 182 189 177 180 187 216 241 243 270 276 265 276 229 199 256 238 233 252 250 229 207 186 180 196 204 204 207 204 204 204 201 201 199 207 214 205 207 200 59 48 35 27 27 29 32 35 30 25 21 18 14 11 11 9 6 5 4 359 356 354 350 346 342 336 333 331 329 327 326 324 322 321 320 318 317 316 315 315
61 28 264 236 222 203 198 195 170 165 169 169 181 238 275 237 255 276 271 286 60 172 268 256 234 254 254 241 211 171 180 203 203 202 204 199 203 206 198 199 200 210 220 213 221 225 49 38 30 26 27 29 29 31 28 22 19 14 11 10 9 6 4 4 2 358 355 353 347 341 337 333 331 330 328 325 324 323 322 321 320 318 316 315 315 314
19 279 259 246 199 153 120 154 153 166 172 175 158 216 291 257 266 292 297 326 15 198 277 278 252 254 260 255 221 184 194 209 206 204 202 194 197 201 196 197 197 206 223 222 224 218 41 31 27 24 28 32 29 28 23 17 15 11 8 8 5 3 1 359 358 357 352 348 344 339 335 333 330 328 327 323 323 323 322 321 320 319 318 317 316 314
328 257 249 222 144 136 42 76 127 131 254 198 172 184 272 275 288 288 308 338 319 253 260 275 268 253 257 258 238 197 201 211 208 208 206 199 198 197 197 195 190 198 211 215 220 242 24 28 23 21 24 30 28 22 15 12 11 7 4 2 359 358 356 354 354 353 349 344 342 340 336 335 332 329 328 326 325 324 322 321 320 319 317 315 313 311
257 250 167 108 120 151 186 128 138 176 280 260 210 202 250 271 250 245 289 336 317 289 276 294 288 254 228 244 248 203 204 216 197 198 209 215 211 204 203 200 197 199 199 194 201 231 12 18 8 15 21 23 20 11 7 8 5 1 358 355 353 352 350 350 351 348 346 344 343 341 338 337 335 331 331 329 326 325 322 320 318 316 314 312 310 309
259 265 120 122 122 143 171 212 183 176 235 294 242 214 231 252 255 265 329 357 334 306 321 11 313 273 234 247 248 159 204 220 195 199 210 210 210 210 206 200 205 209 203 190 174 172 219 329 351 10 20 15 8 2 1 1 356 351 349 348 346 346 345 346 346 345 344 345 344 342 339 336 333 329 326 324 322 320 319 318 317 315 314 313 311 309
260 346 76 135 153 147 174 243 227 168 139 286 255 206 212 229 246 269 327 352 273 263 297 60 281 274 281 248 243 189 204 223 204 211 214 204 204 207 202 196 201 202 196 187 169 179 207 325 347 357 7 3 354 354 354 349 345 342 340 342 341 339 341 341 343 344 343 343 342 339 334 329 326 321 317 317 317 315 315 315 314 314 313 313 311 310
168 76 49 108 130 156 192 250 228 157 131 239 245 131 141 199 233 249 270 267 245 271 295 216 170 273 273 248 247 183 199 230 221 220 219 206 209 207 201 201 199 192 179 169 176 195 209 349 338 335 344 349 347 346 345 341 338 337 336 337 336 334 336 338 340 341 341 341 338 334 328 322 318 314 312 313 315 314 314 313 312 312 311 311 310 308
164 169 195 157 132 186 211 227 190 157 158 245 215 142 139 198 219 225 211 254 283 10 291 243 148 260 269 249 342 123 205 241 232 222 216 207 209 205 200 206 202 189 179 171 175 189 202 294 329 327 330 336 339 337 337 336 333 334 335 333 331 330 333 336 337 338 339 338 335 330 324 318 315 313 310 311 312 313 314 313 312 311 310 310 308 304
204 203 193 154 159 213 219 222 176 162 199 228 156 123 4 42 203 207 218 257 31 7 268 246 155 222 269 225 96 71 227 242 236 223 212 209 211 203 198 204 198 183 180 184 180 182 195 238 334 337 329 327 328 330 332 331 329 332 332 329 327 328 331 333 335 336 337 337 333 327 321 317 314 313 311 311 310 311 313 312 311 310 309 308 306 304
296 270 174 148 184 197 166 136 143 154 164 111 80 20 355 359 23 45 48 75 62 266 259 230 176 197 271 242 172 195 218 221 222 212 198 207 211 201 198 198 186 177 178 184 188 199 217 302 355 345 331 323 322 325 325 324 326 329 327 325 324 328 331 332 333 334 334 334 329 323 319 314 312 311 310 310 309 310 312 312 311 309 307 306 305 305
338 61 218 242 178 134 105 86 30 17 71 90 69 32 349 325 4 23 355 50 82 260 261 225 183 197 242 248 207 227 241 224 207 193 194 204 203 195 194 190 180 180 180 176 191 217 259 345 348 338 328 322 316 314 315 317 321 324 324 325 325 329 332 331 332 332 331 330 326 321 316 311 309 307 306 305 306 309 310 310 309 308 306 305 306 305
312 213 259 318 181 135 114 93 6 353 34 77 76 60 12 325 355 345 300 242 218 250 247 122 146 220 242 250 244 242 251 248 216 203 203 199 190 186 186 182 179 180 183 180 194 219 237 289 314 323 320 312 302 302 308 312 316 321 325 328 327 329 331 331 330 330 329 327 324 319 314 310 307 303 302 302 303 307 309 308 306 304 304 304 305 305
302 293 299 286 268 171 145 147 203 270 117 134 137 126 147 329 332 293 275 276 276 271 251 116 111 268 266 263 252 249 263 263 226 215 210 187 177 180 175 170 179 183 192 193 191 213 223 240 290 310 302 293 290 297 303 305 312 321 327 330 328 327 330 330 328 328 327 325 322 319 313 308 305 301 301 301 301 306 309 308 304 299 298 299 300 300
235 298 231 182 229 179 172 184 170 142 141 175 154 135 162 169 227 269 262 270 292 296 268 160 160 238 243 258 262 267 295 308 261 191 151 149 159 163 155 160 180 190 197 201 199 217 229 250 290 292 284 282 286 293 297 301 314 324 328 331 328 327 329 329 329 327 326 324 321 317 312 307 304 301 301 302 301 303 308 308 303 296 294 294 295 296
186 258 248 225 261 169 174 196 140 110 114 222 125 117 187 183 189 246 250 234 292 310 277 214 211 227 211 211 311 321 337 15 30 95 123 137 148 145 156 172 184 194 196 199 209 230 250 268 277 274 275 280 285 290 294 306 321 328 330 331 328 328 329 329 329 327 324 322 319 315 311 307 303 301 301 301 300 303 306 305 300 295 293 292 292 293
190 264 266 50 314 213 178 181 129 107 167 168 124 183 217 162 149 229 282 308 66 287 272 235 255 274 276 256 338 45 37 47 56 132 141 148 155 155 173 183 188 199 199 200 205 224 252 263 268 270 275 283 289 294 301 315 328 330 329 329 328 328 329 328 327 325 323 321 317 314 310 307 304 303 301 300 300 304 306 304 300 296 294 292 291 292
197 266 259 151 198 257 215 147 41 14 135 137 189 215 183 95 92 114 287 318 319 250 266 254 264 276 272 264 323 43 227 219 196 183 164 165 174 177 187 189 195 200 197 204 215 230 245 253 261 269 283 294 300 303 309 321 329 330 329 330 328 327 327 326 324 322 320 318 316 313 311 309 306 303 301 300 301 303 303 302 300 298 294 292 291 291
154 254 276 183 191 272 30 95 332 334 72 131 214 228 117 145 242 123 155 267 264 260 272 264 269 270 243 224 249 212 213 212 200 193 194 193 190 188 188 191 199 197 190 201 221 241 243 246 256 273 296 308 311 311 316 324 328 330 332 331 329 326 323 323 321 319 318 316 314 312 310 309 306 303 301 301 302 302 299 298 299 298 295 294 293 291
126 216 270 324 282 274 50 122 198 252 14 46 289 320 34 184 206 196 165 206 243 266 278 280 285 273 234 186 207 213 206 198 187 191 206 204 193 188 184 186 193 189 189 202 215 233 235 245 267 296 311 312 316 316 319 325 327 329 331 330 328 324 321 320 319 318 317 316 315 312 310 308 305 303 302 301 301 300 296 294 295 298 297 295 295 292
102 215 241 313 325 243 181 198 192 186 175 150 181 226 245 204 204 263 223 161 210 258 272 276 276 270 233 162 205 213 206 196 184 192 207 200 186 189 186 182 186 183 190 205 215 228 239 263 294 311 311 310 314 315 318 324 326 328 329 328 325 321 319 319 318 317 316 315 315 312 310 309 306 304 303 302 300 298 296 293 293 296 296 295 295 293
161 194 195 182 240 213 225 240 203 191 188 179 185 196 205 203 189 262 257 205 191 242 239 256 276 270 222 159 206 205 203 197 186 194 201 186 182 190 188 184 182 184 192 206 219 232 254 281 296 299 303 308 309 312 319 324 326 326 326 325 323 320 318 318 318 317 315 314 313 311 310 309 307 305 303 302 299 298 299 296 293 296 295 293 294 293
135 130 189 218 216 206 247 292 283 233 211 197 213 198 189 191 177 213 248 229 172 240 221 56 275 268 154 135 210 213 209 194 187 194 189 179 186 184 183 186 182 187 198 205 220 242 258 267 280 288 295 302 304 310 318 321 323 323 322 323 322 319 319 318 317 316 315 314 312 310 310 308 307 306 303 301 298 297 300 298 295 296 294 291 293 293
104 109 200 266 301 357 325 331 346 19 56 231 241 197 182 203 197 209 235 150 181 236 167 193 258 258 32 48 259 49 214 184 185 191 178 173 185 180 179 185 181 191 205 210 230 248 253 260 273 280 285 294 300 308 314 317 320 321 321 322 321 319 318 317 317 316 315 313 311 310 310 309 308 306 301 298 296 294 299 300 297 295 293 290 291 291
185 166 178 264 311 314 319 342 335 322 193 224 235 198 203 217 209 211 45 103 248 227 175 220 256 257 295 21 43 86 118 164 183 186 174 170 176 180 180 182 184 190 199 214 236 250 254 259 263 269 281 290 296 304 311 316 320 321 321 321 320 318 317 317 318 317 315 313 312 312 312 311 309 304 299 297 296 294 297 301 299 296 293 290 289 291
181 180 170 184 239 259 263 263 248 226 206 230 235 209 210 210 200 200 196 220 243 223 193 228 256 267 265 127 108 166 154 167 189 182 184 181 175 179 180 183 188 186 199 217 231 246 251 255 259 268 279 285 292 304 312 318 321 322 320 318 318 318 317 319 319 317 315 315 314 313 313 312 308 305 301 298 297 296 296 298 300 299 296 291 289 291
135 195 201 203 220 233 248 254 226 138 173 226 228 209 203 204 201 203 216 233 238 234 240 244 249 268 269 234 176 215 190 182 193 181 188 192 179 181 181 180 185 189 205 216 224 240 248 258 261 263 269 278 297 311 317 321 323 322 319 318 319 320 320 320 319 317 316 316 315 314 313 311 307 305 302 298 297 298 296 296 299 301 299 295 290 291
106 234 222 214 229 235 244 253 231 174 227 245 244 222 197 191 195 199 216 234 236 231 258 257 243 254 265 255 202 212 205 194 195 188 190 188 178 181 176 174 187 199 212 220 223 231 243 258 254 251 262 283 312 320 325 326 325 324 321 318 320 321 321 320 319 318 318 318 316 314 312 310 306 304 302 300 299 298 297 297 300 300 299 297 292 290
141 239 227 208 235 243 246 253 230 204 243 256 257 243 194 184 197 206 223 235 232 227 251 264 263 258 263 263 219 210 205 200 198 191 186 177 171 173 169 176 192 201 211 219 222 224 230 241 242 244 268 306 327 328 331 330 328 327 323 319 321 321 321 321 319 318 318 317 315 314 312 310 307 304 303 302 301 300 299 300 301 301 300 298 294 290
162 245 234 204 239 251 250 249 234 232 254 261 260 251 208 209 213 215 233 240 236 238 250 262 270 267 267 267 244 221 204 196 189 175 170 168 172 174 175 185 195 201 210 214 217 222 224 230 240 254 284 324 336 335 334 329 326 325 321 320 322 320 320 320 319 318 317 316 314 313 313 311 308 306 306 304 303 303 304 303 303 302 299 297 295 291
205 241 229 171 246 262 253 237 229 240 256 263 266 258 234 238 237 231 241 246 244 246 251 257 264 267 269 265 245 219 171 156 158 165 175 178 177 177 180 189 194 199 209 212 212 218 223 229 244 254 283 338 342 338 333 325 322 321 320 321 321 319 320 320 319 318 316 314 314 314 315 315 313 311 310 308 306 305 307 306 305 303 300 297 296 293
198 227 45 108 237 260 258 110 239 315 290 270 269 260 241 240 241 234 236 240 236 238 249 256 256 260 267 259 219 192 158 159 168 173 181 182 180 181 184 189 195 200 206 210 210 213 221 231 233 224 345 347 340 334 329 324 321 320 320 321 319 318 320 321 320 318 315 315 316 317 318 318 316 314 313 312 311 309 310 309 307 305 302 298 296 293
171 190 154 147 227 258 21 84 89 35 301 269 262 246 228 227 234 238 242 242 233 226 241 247 243 252 258 184 186 194 174 175 180 178 179 181 184 187 186 187 192 200 203 202 204 210 214 217 202 118 360 345 335 327 326 323 319 318 318 317 316 317 320 321 320 318 316 317 318 318 320 320 317 316 315 315 314 312 312 310 307 307 304 300 297 292
173 188 188 173 208 247 98 85 82 299 266 266 264 204 205 211 219 227 239 244 233 215 225 240 249 259 255 211 203 197 184 190 192 187 183 179 180 184 185 187 190 196 202 198 200 207 205 197 178 98 359 341 329 324 324 322 319 317 317 317 318 321 322 320 319 318 317 318 319 319 322 322 320 319 318 317 316 314 311 310 309 308 305 301 296 291
179 190 191 172 171 196 104 81 117 242 251 252 76 170 205 201 206 220 240 250 242 225 228 241 253 256 252 242 217 183 190 199 186 184 185 177 175 172 172 184 188 189 196 196 193 194 185 180 167 92 9 340 329 326 327 327 326 323 321 322 322 322 321 319 318 318 317 318 320 321 323 323 321 318 318 317 316 313 311 310 309 309 307 302 294 288
172 176 176 153 153 168 122 163 215 256 291 291 257 198 172 184 195 223 259 263 250 230 227 235 246 252 252 247 216 169 175 163 137 174 183 169 166 164 166 181 186 187 194 190 179 177 171 160 124 60 0 337 332 332 333 333 331 327 322 322 322 320 320 320 318 318 320 320 321 323 323 323 320 318 317 316 315 314 313 311 310 310 307 298 290 285
166 168 183 186 199 206 199 220 241 305 308 288 265 199 166 193 183 179 257 271 253 209 212 226 240 251 251 227 164 137 126 109 109 209 193 166 167 166 167 174 174 178 181 162 155 156 147 123 74 27 346 339 341 341 341 337 333 328 322 321 322 322 323 323 320 321 322 321 322 324 323 322 321 319 317 316 315 313 313 311 310 310 305 294 287 287
179 181 191 199 214 208 209 244 265 279 273 271 260 184 181 183 160 143 237 280 257 179 195 216 230 242 235 152 139 138 124 121 198 215 190 174 171 158 153 157 158 161 158 150 150 142 121 94 52 14 348 350 353 349 345 340 335 330 323 322 325 326 325 324 322 323 322 321 322 323 322 322 322 319 317 316 315 313 312 311 310 311 307 297 296 299
180 183 184 200 216 189 199 233 233 241 255 249 170 180 167 142 134 109 17 283 241 178 191 208 217 222 183 149 154 149 140 185 231 212 172 169 169 155 150 152 148 150 149 147 146 133 113 90 45 21 11 7 359 350 346 343 338 333 327 326 328 327 325 324 323 324 323 321 321 322 322 323 323 321 318 316 314 313 312 313 314 314 312 307 306 306
169 161 161 201 219 204 208 229 229 246 255 218 152 171 171 146 121 90 319 272 217 169 190 198 201 202 166 154 161 160 173 211 227 189 159 158 158 154 156 157 153 152 149 140 131 119 102 75 42 28 20 10 357 350 348 346 341 335 329 328 327 325 324 324 323 323 320 319 321 323 324 325 323 322 320 316 315 315 316 317 318 316 314 312 309 307
191 194 184 209 222 214 213 226 246 260 248 181 153 166 160 128 97 129 249 248 171 171 201 187 185 187 160 157 172 183 196 208 147 139 146 147 147 152 154 149 145 147 145 136 125 108 84 62 43 31 20 8 358 354 353 349 342 335 329 327 325 324 324 323 321 322 322 322 324 325 326 327 325 323 322 319 317 317 318 320 319 315 314 313 311 311
175 176 207 219 216 212 219 220 249 271 243 155 153 167 154 139 196 223 229 162 143 176 198 184 184 176 163 173 185 179 160 109 117 135 145 149 150 149 145 140 139 143 137 125 113 91 76 65 44 29 17 8 2 359 356 350 341 334 330 328 325 323 323 323 324 326 325 325 327 328 328 329 328 326 324 322 322 321 320 320 319 316 315 315 313 312
171 162 197 212 187 166 218 207 227 265 213 146 142 155 173 194 221 210 147 109 166 178 176 181 187 171 170 182 176 147 135 129 135 143 146 150 149 143 146 147 145 144 129 115 106 90 84 77 53 29 15 9 6 2 358 349 340 335 331 327 325 324 324 325 328 329 329 328 329 330 330 331 330 329 327 326 325 323 321 321 321 319 318 318 316 315
177 171 184 203 180 149 188 207 214 237 167 150 152 174 198 205 205 140 145 171 190 176 168 178 186 179 180 176 156 147 149 144 147 150 147 150 151 146 150 150 140 135 123 114 111 102 89 78 54 28 17 15 10 2 356 349 341 336 329 325 326 327 328 330 332 331 332 332 332 332 333 332 332 331 330 330 328 324 322 323 324 322 321 320 319 319
198 191 184 188 186 184 205 218 215 183 156 175 184 192 197 201 186 130 156 165 165 184 183 172 180 187 182 166 153 155 159 155 159 159 154 156 157 149 144 139 131 126 120 116 113 104 88 72 51 29 19 19 12 358 353 351 344 335 327 326 330 331 332 334 334 333 334 334 333 334 334 333 333 333 332 332 330 326 323 324 324 324 323 322 322 322
209 193 172 132 196 218 246 246 223 181 181 196 205 210 180 192 182 154 160 161 163 179 176 170 182 182 172 163 157 160 169 164 160 161 158 153 151 143 132 126 124 124 123 121 115 107 93 73 57 40 21 12 6 355 349 350 347 335 327 329 334 336 336 337 335 334 335 335 335 335 335 334 334 334 334 334 332 329 327 326 325 323 323 323 324 324
222 182 189 212 188 199 247 250 227 208 200 196 205 222 227 202 191 174 168 166 164 171 179 184 182 170 166 169 167 167 173 163 155 157 157 148 145 144 135 128 130 131 129 126 122 116 102 79 63 47 17 356 353 351 348 349 348 338 332 335 339 341 341 340 338 336 335 336 336 336 337 336 334 334 335 335 334 333 332 331 328 324 324 326 325 320
187 160 189 222 209 206 240 250 226 196 205 197 201 217 217 202 195 182 169 163 158 166 180 181 168 163 168 177 174 166 164 162 158 156 153 149 149 148 141 137 136 133 129 128 126 118 106 92 80 59 8 341 344 348 350 351 348 342 341 344 345 346 345 342 340 338 336 337 338 337 338 338 335 335 335 334 335 337 336 333 331 328 327 327 324 318
136 155 186 208 209 233 249 246 88 78 233 217 210 217 212 195 186 177 163 158 155 161 169 167 167 172 173 177 173 158 156 167 164 153 151 152 149 145 144 141 137 134 131 129 125 119 114 105 95 80 8 340 347 351 353 355 350 347 350 351 351 351 348 343 342 341 339 340 340 339 339 339 338 338 336 334 336 339 337 334 332 330 331 333 332 330
157 191 189 167 187 233 244 230 182 182 236 226 212 214 209 186 171 171 170 170 168 167 164 160 164 178 177 177 169 156 156 166 161 150 150 152 149 147 143 138 135 132 130 129 126 123 120 113 106 105 36 354 357 359 359 357 352 353 357 358 357 356 352 346 343 341 341 342 342 340 341 340 339 340 339 336 337 338 338 338 338 338 341 342 341 342
198 203 188 183 209 227 237 230 201 201 231 232 208 202 197 179 173 180 182 180 175 170 165 161 160 164 176 186 178 162 157 158 155 149 144 141 145 145 140 139 139 135 134 136 135 129 126 125 124 119 64 9 7 8 4 359 357 359 3 4 1 359 355 351 346 340 340 342 341 340 341 340 339 340 339 338 339 340 340 339 340 346 352 353 350 349